Погода в Ахсу

Азербайджан     40°34′10″N   48°23′36″E
темп.,
°C
ветер,
м/с
пор.,
м/с
влажн.,
%
обл.,
%
осадки,
мм/ч
давл.,
гПа
погр.,
м
16 сентября, чт
чт1601:00+21сз22610 0.0 101232
04:00+20зсз12660 0.0 101127
07:00+20ссз11640 0.0 101120
10:00+25зюз22470 0.0 1010661
13:00+29зюз43340 0.0 10081422
16:00+31юз44280 0.0 10041440
19:00+28ю22340 0.0 100519
22:00+24ссз11460 0.0 100717
17 сентября, пт
пт1701:00+22ссз22480 0.0 100838
04:00+21сз23480 0.0 100945
07:00+20с22490 0.0 101132
10:00+26зюз22320 0.0 1012824
13:00+30юз42271 0.0 10101905
16:00+31юз32243 0.0 10082515
19:00+26вюв233419 0.0 100956
22:00+24зсз463960 0.0 1012341
18 сентября, сб
сб1801:00+21з36470 0.0 1013293
04:00+19з11580 0.0 101414
07:00+19св11580 0.0 101512
10:00+24зюз34410 0.0 10151024
13:00+28юз44310 0.0 10131689
16:00+29ююз32280 0.0 10122141
19:00+24ююв47444 0.0 1013243
22:00+21сз225675 0.0 101560
19 сентября, вс
вс1901:00+19з24653 0.0 1016141
04:00+18зсз11670 0.0 101642
07:00+18с01670 0.0 101722
10:00+23юз21475 0.0 1017638
13:00+27ююз32320 0.0 10151491
16:00+29ю32275 0.0 10131750
19:00+25ююв33323 0.0 101342
22:00+22ссв11415 0.0 101511
20 сентября, пн
пн2001:00+21ссз22440 0.0 101513
04:00+20ссз11470 0.0 101411
07:00+19с11500 0.0 101411
10:00+24юз22365 0.0 1014656
13:00+28юз33271 0.1 10111238
16:00+30юз32240 0.1 10091671
19:00+26ю22320 0.0 101026
22:00+22зюз11645 0.0 101217